CAPE
183 180 185 186 212 188 141 117 142 106 59 76 48 26 0 0 0 5 53 42 19 7 16 14 25 0 0 0 0 0 0 0 0 0 0 0 0 0 0 0 0 0 0
123 105 190 237 258 145 84 108 121 100 51 39 10 4 1 0 3 19 55 42 42 18 20 64 51 1 16 0 0 0 0 0 0 0 0 0 0 0 0 0 0 0 0
5 58 140 87 143 57 64 101 72 14 4 0 0 0 2 1 1 0 20 21 40 42 63 81 65 10 14 0 0 0 0 0 0 0 0 0 0 0 0 0 0 0 0
16 20 34 68 40 24 23 43 37 15 7 2 3 6 12 0 1 4 4 19 31 39 49 90 37 0 11 0 0 0 0 0 0 0 0 0 0 0 0 0 0 0 0
2 0 1 0 12 11 2 1 2 1 1 0 1 1 1 2 2 3 12 20 18 26 15 5 14 3 0 0 0 0 0 0 0 0 0 0 0 0 0 0 0 0 0
0 2 1 0 0 0 0 0 1 0 0 0 0 0 0 0 1 2 0 0 1 7 2 0 0 1 0 0 0 0 0 0 0 0 0 0 0 0 0 0 0 0 0
0 0 0 0 0 0 0 0 0 0 0 0 0 0 0 0 0 1 1 1 1 0 0 0 0 0 0 0 0 0 0 0 0 0 0 0 0 0 0 0 0 0 0
0 0 0 0 0 0 0 0 0 0 0 0 0 0 0 0 1 0 0 0 0 0 0 0 0 0 0 0 0 0 0 0 0 0 0 0 0 0 0 0 0 0 0
0 0 0 0 0 0 0 0 0 0 0 0 0 0 0 0 0 0 0 0 0 0 0 0 0 0 1 0 0 0 0 0 1 0 0 0 0 0 0 0 0 0 0
0 0 0 0 0 0 0 0 0 0 0 0 0 0 0 0 1 0 0 0 0 0 0 0 0 0 2 1 0 0 0 0 0 0 0 0 0 0 0 0 0 0 0
0 0 0 0 0 0 0 0 0 0 0 0 0 0 0 0 0 0 0 0 0 0 0 0 0 1 1 1 0 0 0 0 0 0 0 0 0 0 0 0 0 0 0
0 0 0 0 0 0 0 0 0 0 0 0 0 0 0 0 0 0 1 0 0 0 0 0 0 0 1 2 1 1 2 0 0 0 0 0 0 0 0 0 0 0 0
0 0 0 0 0 0 0 0 0 0 0 0 0 0 0 0 0 0 0 0 2 0 0 0 0 0 1 2 3 2 4 0 0 0 0 0 0 0 0 0 0 0 0
0 0 0 0 0 0 0 0 0 0 0 0 0 0 0 0 0 0 0 0 0 0 0 0 0 0 1 0 0 1 0 0 0 0 0 0 0 0 0 0 0 0 0
0 0 0 0 0 0 0 0 0 0 3 3 5 2 2 0 5 5 4 1 0 0 0 0 0 0 0 0 0 0 0 0 0 0 0 0 0 0 0 0 0 0 0
0 0 0 0 0 0 0 0 0 0 1 1 0 2 1 2 3 4 2 0 3 8 0 0 0 0 0 0 0 0 0 0 0 0 0 0 0 0 0 0 0 0 0
0 0 0 0 0 0 0 0 0 0 0 0 0 0 0 1 4 5 3 2 3 5 0 0 0 0 0 0 0 0 0 0 0 0 0 0 0 0 1 0 0 0 0
0 0 0 0 0 0 0 0 0 0 0 0 0 0 0 2 3 1 2 1 1 0 1 1 1 0 0 0 0 0 0 0 0 0 0 0 0 0 0 0 0 0 0
0 0 0 0 0 0 0 0 0 0 0 0 0 0 0 0 0 0 0 0 3 2 3 3 3 4 3 1 1 0 0 0 0 0 0 0 0 0 0 0 0 1 0
0 0 0 0 0 0 0 0 0 0 0 0 0 0 0 0 0 0 1 0 0 0 2 2 6 6 4 3 4 2 1 0 0 0 0 0 0 0 0 0 0 0 0
0 0 0 0 0 0 0 0 0 0 0 0 0 0 0 0 0 0 0 1 0 0 0 0 0 3 6 5 1 4 3 0 0 0 0 0 0 0 0 0 0 0 0
0 0 0 0 0 0 0 0 0 0 0 0 0 0 0 0 0 0 0 0 0 0 0 0 0 0 0 2 2 3 2 5 4 0 0 0 0 0 0 0 0 0 0
0 0 0 0 0 0 0 0 0 0 0 0 0 0 0 0 0 0 0 0 0 0 0 0 0 0 0 0 0 0 0 0 1 2 1 0 0 0 0 0 0 0 0
0 0 0 0 0 0 0 0 0 0 0 0 0 0 0 0 0 0 0 0 0 0 0 0 0 0 0 0 0 0 0 0 0 0 1 1 0 1 0 0 0 0 0
0 0 0 0 0 0 0 0 0 0 0 0 0 0 0 0 0 0 0 0 0 0 0 0 0 0 0 0 0 0 0 0 0 0 0 0 0 0 0 0 0 0 0
0 0 0 0 0 0 0 0 0 0 0 0 0 0 0 0 0 0 0 0 0 0 0 0 0 0 0 0 0 0 4 7 3 4 0 0 0 0 0 0 0 0 0
CIN
-116 -137 -118 -101 -67 -44 -29 -23 -14 -2 -2 -2 -41 -59 -1 -1 -0 -15 -51 -89 -118 -150 -195 -163 -209 -0 -0 -0 -0 -0 -0 -0 -0 -0 -0 -0 -0 -0 -0 -0 -0 -0 -0
-65 -81 -48 -32 -3 -22 -65 -69 -35 -13 -4 -13 -3 -1 -0 -5 -5 -45 -47 -95 -117 -160 -195 -152 -176 -111 -379 -15 -0 -0 -0 -0 -0 -0 -0 -0 -0 -0 -0 -0 -0 -0 -0
-78 -19 -5 -6 -9 -38 -49 -41 -30 -6 -8 -0 -0 -0 -0 -0 -10 -17 -63 -136 -155 -173 -164 -163 -198 -374 -346 -0 -0 -0 -0 -0 -0 -0 -0 -0 -0 -0 -0 -0 -0 -0 -0
-31 -20 -10 -0 -1 -21 -29 -29 -0 -13 -47 -16 -2 -2 -0 -0 -16 -21 -63 -105 -143 -165 -199 -182 -245 -0 -303 -0 -0 -0 -0 -0 -0 -0 -0 -0 -0 -0 -0 -0 -0 -0 -0
-0 -0 -0 -0 -4 -0 -1 -2 -2 -2 -0 -0 -36 -0 -12 -45 -38 -50 -90 -101 -99 -121 -209 -248 -252 -328 -75 -0 -0 -0 -0 -0 -0 -0 -0 -0 -0 -0 -0 -0 -0 -0 -0
-0 -0 -0 -0 -0 -0 -0 -0 -0 -0 -0 -0 -0 -0 -0 -0 -0 -33 -9 -0 -98 -129 -165 -0 -0 -0 -0 -0 -0 -0 -0 -0 -0 -0 -0 -0 -0 -0 -0 -0 -0 -0 -0
-0 -0 -0 -0 -0 -0 -0 -0 -0 -0 -0 -0 -0 -0 -0 -0 -0 -0 -0 -0 -0 -0 -0 -0 -0 -0 -0 -0 -0 -0 -0 -0 -0 -0 -0 -0 -0 -0 -0 -0 -0 -0 -0
-0 -0 -0 -0 -0 -0 -0 -0 -0 -0 -0 -0 -0 -0 -0 -0 -0 -0 -0 -0 -0 -0 -0 -0 -0 -0 -0 -0 -0 -0 -0 -0 -0 -0 -0 -0 -0 -0 -0 -0 -0 -0 -0
-0 -0 -0 -0 -0 -0 -0 -0 -0 -0 -0 -0 -0 -0 -0 -0 -0 -0 -0 -0 -0 -0 -0 -0 -0 -0 -0 -0 -0 -0 -0 -0 -0 -0 -0 -0 -0 -0 -0 -0 -0 -0 -0
-0 -0 -0 -0 -0 -0 -0 -0 -0 -0 -0 -0 -0 -0 -0 -0 -0 -0 -0 -0 -0 -0 -0 -0 -0 -0 -0 -0 -0 -0 -0 -0 -0 -0 -0 -0 -0 -0 -0 -0 -0 -0 -0
-0 -0 -0 -0 -0 -0 -0 -0 -0 -0 -0 -0 -0 -0 -0 -0 -0 -0 -0 -0 -0 -0 -0 -0 -0 -0 -0 -0 -0 -0 -0 -0 -0 -0 -0 -0 -0 -0 -0 -0 -0 -0 -0
-0 -0 -0 -0 -0 -0 -0 -0 -0 -0 -0 -0 -0 -0 -0 -0 -0 -0 -0 -0 -0 -0 -0 -0 -0 -0 -0 -0 -0 -0 -0 -0 -0 -0 -0 -0 -0 -0 -0 -0 -0 -0 -0
-0 -0 -0 -0 -0 -0 -0 -0 -0 -0 -0 -0 -0 -0 -0 -0 -0 -0 -0 -0 -0 -1 -0 -0 -0 -0 -0 -0 -0 -0 -0 -0 -0 -0 -0 -0 -0 -0 -0 -0 -0 -0 -0
-0 -0 -0 -0 -0 -0 -0 -0 -0 -0 -0 -0 -0 -0 -0 -0 -0 -0 -0 -0 -0 -0 -0 -0 -0 -0 -0 -0 -0 -0 -0 -0 -0 -0 -0 -0 -0 -0 -0 -0 -0 -0 -0
-0 -0 -0 -0 -0 -0 -0 -0 -0 -0 -0 -0 -0 -0 -0 -0 -0 -0 -0 -0 -0 -0 -0 -0 -0 -0 -0 -0 -0 -0 -0 -0 -0 -0 -0 -0 -0 -0 -0 -0 -0 -0 -0
-0 -0 -0 -0 -0 -0 -0 -0 -0 -0 -0 -0 -0 -0 -0 -0 -0 -0 -0 -0 -0 -4 -0 -0 -0 -0 -0 -0 -0 -0 -0 -0 -0 -0 -0 -0 -0 -0 -0 -0 -0 -0 -0
-0 -0 -0 -0 -0 -0 -0 -0 -0 -0 -0 -0 -0 -0 -0 -1 -1 -1 -1 -0 -0 -3 -0 -0 -0 -0 -0 -0 -0 -0 -0 -0 -0 -0 -0 -0 -0 -0 -0 -0 -0 -0 -0
-0 -0 -0 -0 -0 -0 -0 -0 -0 -0 -0 -0 -0 -0 -0 -0 -0 -0 -0 -0 -0 -0 -0 -0 -0 -0 -0 -0 -0 -0 -0 -0 -0 -0 -0 -0 -0 -0 -0 -0 -0 -0 -0
-0 -0 -0 -0 -0 -0 -0 -0 -0 -0 -0 -0 -0 -0 -0 -0 -0 -0 -0 -0 -1 -1 -0 -0 -0 -0 -0 -0 -0 -0 -0 -0 -0 -0 -0 -0 -0 -0 -0 -0 -0 -0 -0
-0 -0 -0 -0 -0 -0 -0 -0 -0 -0 -0 -0 -0 -0 -0 -0 -0 -0 -0 -0 -0 -1 -2 -0 -0 -0 -0 -0 -0 -0 -0 -0 -0 -0 -0 -0 -0 -0 -0 -0 -0 -0 -0
-0 -0 -0 -0 -0 -0 -0 -0 -0 -0 -0 -0 -0 -0 -0 -0 -0 -0 -0 -0 -0 -0 -0 -0 -0 -0 -0 -0 -0 -0 -0 -0 -0 -0 -0 -0 -0 -0 -0 -0 -0 -0 -0
-0 -0 -0 -0 -0 -0 -0 -0 -0 -0 -0 -0 -0 -0 -0 -0 -0 -0 -0 -0 -0 -0 -0 -0 -0 -0 -0 -0 -0 -0 -0 -0 -0 -0 -0 -0 -0 -0 -0 -0 -0 -0 -0
-0 -0 -0 -0 -0 -0 -0 -0 -0 -0 -0 -0 -0 -0 -0 -0 -0 -0 -0 -0 -0 -0 -0 -0 -0 -0 -0 -0 -0 -0 -0 -0 -0 -0 -0 -0 -0 -0 -0 -0 -0 -0 -0
-0 -0 -0 -0 -0 -0 -0 -0 -0 -0 -0 -0 -0 -0 -0 -0 -0 -0 -0 -0 -0 -0 -0 -0 -0 -0 -0 -0 -0 -0 -0 -0 -0 -0 -0 -0 -0 -0 -0 -0 -0 -0 -0
-0 -0 -0 -0 -0 -0 -0 -0 -0 -0 -0 -0 -0 -0 -0 -0 -0 -0 -0 -0 -0 -0 -0 -0 -0 -0 -0 -0 -0 -0 -0 -0 -0 -0 -0 -0 -0 -0 -0 -0 -0 -0 -0
-0 -0 -0 -0 -0 -0 -0 -0 -0 -0 -0 -0 -0 -0 -0 -0 -0 -0 -0 -0 -0 -0 -0 -0 -0 -0 -0 -0 -0 -0 -0 -0 -1 -0 -0 -0 -0 -0 -0 -0 -0 -0 -0
Wind_Speed
10 10 11 10 12 13 13 14 15 16 17 18 18 18 17 17 14 13 15 14 15 12 9 11 11 8 7 5 5 4 4 4 5 3 4 5 5 6 5 2 1 2 1
6 6 9 10 12 11 8 10 14 18 18 15 17 20 18 17 16 16 16 14 15 13 13 12 12 8 9 9 8 9 7 4 4 5 2 3 5 5 6 4 3 3 3
6 7 9 11 10 11 8 6 8 12 15 12 13 12 13 14 13 13 14 13 12 13 14 14 13 12 10 7 6 6 5 4 3 3 3 2 0 1 1 5 2 2 3
17 10 14 14 10 7 7 10 10 9 10 11 9 8 6 9 10 11 11 11 10 10 11 13 13 13 13 12 10 11 8 6 5 4 2 3 3 2 2 2 2 3 3
17 14 9 4 6 7 3 10 10 7 6 7 7 6 6 6 6 8 7 5 6 8 9 10 10 13 18 16 11 12 10 9 6 6 3 3 4 3 5 4 4 3 2
17 13 13 16 15 12 14 12 13 12 10 10 5 7 8 5 5 6 5 5 6 6 7 7 7 11 12 12 16 12 14 14 12 9 3 4 4 4 4 4 4 3 3
17 16 16 15 16 14 12 13 13 12 11 11 9 9 10 8 12 10 6 3 1 5 6 8 8 6 10 10 13 11 14 11 8 8 7 6 4 4 6 4 4 3 3
18 17 16 16 17 15 15 14 13 9 10 9 9 9 9 8 11 11 10 5 4 4 4 4 4 2 1 4 7 8 7 7 6 4 5 3 3 5 4 4 4 3 2
17 16 16 15 15 14 14 12 10 12 12 11 8 9 10 9 13 12 7 6 4 4 4 4 2 2 6 12 7 6 5 5 9 12 7 8 8 9 9 6 2 2 2
13 14 14 14 14 13 12 12 10 10 10 8 9 9 12 7 11 11 7 4 4 2 2 0 9 8 6 7 5 4 4 3 5 5 4 5 7 7 11 4 5 4 2
12 13 13 13 13 11 10 9 7 8 9 9 9 8 8 8 7 11 12 5 3 3 2 3 4 4 14 14 11 8 4 4 5 4 3 2 3 2 2 3 4 4 4
10 11 13 12 9 8 10 9 9 8 9 8 7 6 5 6 10 8 8 6 4 2 3 3 4 6 5 5 8 10 13 12 7 5 3 1 1 3 4 4 4 3 1
9 9 8 8 8 8 9 9 7 8 6 6 5 4 4 4 4 11 10 9 4 2 3 4 6 6 8 7 9 12 12 4 1 1 4 5 6 6 3 1 1 2 1
7 8 7 8 7 8 7 7 6 8 6 5 5 5 4 4 4 4 4 4 5 4 4 4 5 5 6 5 3 5 3 3 4 4 3 3 3 3 3 3 3 2 0
8 6 6 6 8 6 6 7 5 5 7 5 5 5 6 6 7 10 8 4 4 5 5 2 2 2 3 2 1 2 1 2 3 3 4 5 5 5 5 5 4 3 4
4 4 4 4 4 4 5 4 9 10 11 12 12 8 5 10 13 14 14 13 13 9 3 2 2 3 3 3 3 3 3 6 5 4 5 5 6 7 7 5 3 5 6
4 3 3 5 4 4 4 5 5 6 8 11 12 11 12 11 12 12 13 12 15 11 2 2 2 2 2 2 3 3 5 6 7 7 7 7 7 7 8 6 6 5 5
3 6 3 3 3 4 3 2 2 3 3 3 5 7 10 12 12 12 13 9 5 6 3 4 5 5 4 4 4 4 5 5 6 6 7 7 7 8 7 7 8 7 6
3 2 3 2 1 2 1 1 1 2 3 3 3 5 8 9 9 10 10 3 3 5 5 5 5 5 5 5 5 5 5 5 6 6 6 7 7 8 8 8 8 14 10
2 3 2 2 1 1 0 1 2 2 3 3 3 3 4 5 2 3 4 4 3 2 3 4 5 6 6 6 6 6 6 6 6 6 7 7 7 7 8 8 8 8 8
0 0 1 2 0 1 1 2 2 2 2 2 3 3 8 1 3 2 2 3 2 2 2 3 4 6 6 6 7 6 6 6 6 7 6 6 6 7 7 7 7 8 7
2 2 2 2 1 2 3 3 3 3 3 3 3 2 7 2 2 3 3 3 3 3 2 2 3 3 6 6 6 6 7 6 6 5 5 5 5 6 6 6 6 6 7
3 3 3 3 3 4 2 3 2 3 3 3 3 3 2 2 2 3 3 4 4 3 3 2 3 3 5 4 4 5 5 6 7 7 5 4 4 4 4 5 5 6 6
4 4 4 4 3 3 3 3 3 5 4 3 3 3 3 3 3 4 3 3 4 4 3 3 3 5 5 3 3 4 5 5 5 5 8 5 3 2 1 2 4 5 5
4 4 4 4 3 3 4 3 3 3 3 3 3 2 2 2 3 3 3 3 4 4 5 4 4 4 5 6 6 8 9 14 7 5 4 6 4 4 0 1 2 3 3
4 4 3 3 3 3 3 3 4 3 4 3 2 2 2 3 3 3 3 4 3 4 5 4 4 6 7 5 7 11 13 11 7 7 2 3 4 3 2 2 2 1 3
Wind_Direction
199 199 201 199 197 200 205 210 208 215 209 204 198 198 192 184 189 202 209 201 198 192 189 192 197 181 199 195 187 170 190 159 167 201 175 154 175 187 173 144 176 155 217
217 198 199 208 204 197 196 203 210 211 204 193 191 189 189 186 195 198 203 198 192 191 197 192 197 179 192 206 192 196 204 188 137 203 169 175 181 211 148 171 189 208 211
262 241 206 194 179 189 187 188 173 199 165 163 175 176 171 176 178 188 203 202 193 196 195 197 198 185 195 206 189 176 200 148 148 143 179 85 202 169 262 135 195 250 249
239 231 231 195 179 175 191 185 182 171 155 152 167 169 180 175 184 193 196 203 193 200 198 204 196 184 194 205 206 206 187 176 162 145 167 149 193 177 115 169 202 217 255
95 78 44 69 138 110 62 127 107 107 102 114 127 143 142 158 179 187 177 187 208 218 213 211 210 212 217 199 192 205 191 181 173 155 164 168 179 170 184 172 184 148 270
53 55 53 71 74 67 65 75 78 72 68 59 80 121 95 72 93 182 178 190 212 220 216 234 233 234 229 214 212 216 194 186 184 177 182 185 194 214 137 154 134 139 233
45 45 46 51 56 53 61 67 70 69 69 71 51 77 78 65 62 70 81 84 202 241 229 226 226 234 212 212 221 214 209 204 168 178 184 200 168 173 130 139 166 161 180
44 43 43 45 50 49 50 48 48 57 76 85 81 71 77 63 55 65 66 70 71 63 48 38 35 18 225 210 188 151 135 117 108 124 138 148 147 143 117 137 163 152 83
36 39 42 42 47 49 50 48 48 63 52 57 41 45 64 60 53 49 37 56 55 40 68 69 63 66 148 136 143 151 122 111 94 100 115 118 113 130 123 103 129 124 218
37 37 34 38 49 48 44 40 41 45 46 48 58 47 56 59 48 54 50 40 44 56 17 310 140 135 105 97 80 90 89 69 100 101 99 113 129 136 163 170 160 189 153
32 38 35 32 38 37 44 42 54 62 60 49 48 38 41 37 32 39 36 31 23 15 360 334 329 179 161 154 153 146 150 138 161 141 122 113 79 104 152 194 192 186 184
29 37 39 33 33 34 48 44 44 45 50 41 48 36 22 17 28 34 40 46 40 13 323 316 306 287 265 209 167 171 160 148 142 145 125 130 187 222 216 206 206 218 261
46 45 42 45 32 35 50 41 38 38 42 35 36 38 17 11 14 15 13 8 346 307 308 299 299 293 288 260 215 192 181 142 182 259 199 201 195 179 155 164 154 140 160
54 44 35 40 42 44 37 42 43 39 31 34 27 13 6 12 12 8 12 358 356 1 337 310 301 280 260 262 265 208 159 160 165 176 165 129 119 134 171 157 179 177 247
39 29 30 43 37 36 47 38 36 23 35 29 33 23 11 14 7 7 1 342 338 334 333 2 335 328 301 284 265 237 163 166 198 189 184 187 191 185 192 173 167 177 201
57 30 38 43 28 36 41 16 25 34 44 40 34 38 15 12 5 1 6 357 346 324 4 323 302 297 282 267 244 238 221 222 224 216 210 211 208 200 195 183 189 182 196
84 64 41 45 34 27 28 36 15 348 17 30 28 26 16 2 3 5 4 3 9 1 351 321 309 301 281 276 269 257 261 238 227 220 221 218 212 207 196 192 192 201 210
76 76 80 65 48 47 40 29 11 8 352 343 357 20 17 6 2 5 7 4 0 1 1 356 341 326 310 290 268 255 254 253 247 230 228 222 215 213 198 189 188 192 193
87 73 80 82 73 72 22 359 353 360 4 351 350 358 4 0 16 16 18 16 359 356 351 343 343 337 326 310 295 285 271 262 250 241 236 231 218 212 211 199 194 195 186
63 29 97 88 60 32 286 320 357 6 354 347 340 322 316 6 3 1 5 351 343 329 336 331 338 333 323 316 315 307 292 284 272 258 246 236 224 213 213 196 190 191 194
101 300 309 105 314 305 309 306 287 292 300 305 292 295 331 75 324 314 307 313 286 291 307 314 319 318 315 316 318 310 316 310 285 263 252 241 227 216 210 203 194 188 184
207 213 216 236 250 265 263 255 261 259 268 263 285 280 333 347 301 300 299 292 288 280 276 268 288 304 307 321 330 335 331 315 307 296 275 252 234 222 203 198 191 185 176
196 210 224 232 236 265 282 264 243 247 257 278 293 298 299 268 269 273 288 298 300 299 289 284 280 292 307 315 332 324 318 324 328 324 315 295 258 228 199 196 182 176 173
190 207 221 232 239 240 248 260 252 267 264 247 260 267 279 285 290 288 283 295 300 298 294 292 288 283 305 307 315 301 298 294 313 323 331 331 328 279 156 177 168 167 165
200 212 226 236 246 263 285 278 256 256 245 240 258 245 248 269 287 286 283 286 289 295 296 295 285 307 317 318 302 301 297 311 312 318 335 337 348 358 38 114 118 140 141
201 215 222 231 242 251 245 256 259 252 259 263 253 259 260 266 272 278 285 285 285 290 296 285 286 300 302 293 293 300 311 320 330 332 337 344 351 358 18 69 106 125 145